Overview Statistics Trail Chart Weather Telemetry Raw packets
 

This is the latest recevied weather packets stored in our database for station/object KA6UPU-1. If no packets are shown the sender has not sent any weather packets the latest 10 day(s).

<< 87 88 89 90 91 92 93 >>
Time Temp. Humidity Pressure Rain* Wind** Luminosity Snow
1787887279 26.67° C 33% 1012.8 hPa 0 mm - - -
1787886979 26.67° C 33% 1012.7 hPa 0 mm - - -
1787885542 27.22° C 30% 1012.4 hPa 0 mm - - -
1787885244 27.78° C 30% 1012.3 hPa 0 mm - - -
1787884644 27.78° C 28% 1012.3 hPa 0 mm - - -
1787884042 27.78° C 31% 1012.3 hPa 0 mm - - -
1787883742 27.78° C 31% 1012.2 hPa 0 mm - - -
1787883442 27.78° C 33% 1012.2 hPa 0 mm - - -
1787883142 27.78° C 34% 1012.3 hPa 0 mm - - -
1787882842 27.78° C 34% 1012.4 hPa 0 mm - - -
1787882542 27.78° C 34% 1012.4 hPa 0 mm - - -
1787882242 28.33° C 33% 1012.5 hPa 0 mm - - -
1787881644 28.33° C 33% 1012.8 hPa 0 mm - - -
1787881342 28.33° C 33% 1012.8 hPa 0 mm - - -
1787881043 28.33° C 32% 1012.8 hPa 0 mm - - -
1787880742 28.89° C 32% 1012.8 hPa 0 mm - - -
1787880442 28.89° C 32% 1013 hPa 0 mm - - -
1787880142 28.89° C 31% 1013 hPa 0 mm - - -
1787879842 28.89° C 31% 1013 hPa 0 mm - - -
1787879543 28.89° C 30% 1012.9 hPa 0 mm - - -
1787879242 28.89° C 30% 1012.9 hPa 0 mm - - -
1787878942 28.89° C 29% 1013 hPa 0 mm - - -
1787878642 29.44° C 29% 1013 hPa 0 mm - - -
1787878342 29.44° C 31% 1013.1 hPa 0 mm - - -
1787878042 30° C 36% 1013.1 hPa 0 mm - - -

* Rain latest hour (hover to see other rain measurements)
** Current wind speed in m/s (hover to see current wind gust speed)